• In Latvia
  • List of Countries
  • For 7 days
  • Water Temperature
  • Satellite Maps
  • Weather Map
  • Weather Widgets
  • user-avatar
    Login

    Hourly Weather Sumgayit

    Today, 25 May, Thursday

    Time Temperature Precipitation Wind Pressure Humidity
    00:00 +16°C° 0.1 mm 5 mps 739 mmHg 67%
    01:00 +17°C° 0 mm 4 mps 739 mmHg 68%
    02:00 +17°C° 0 mm 4 mps 739 mmHg 69%
    03:00 +15°C° 0 mm 4 mps 739 mmHg 72%
    04:00 +15°C° 0 mm 4 mps 739 mmHg 71%
    05:00 +17°C° 0 mm 4 mps 740 mmHg 70%
    06:00 +17°C° 0 mm 4 mps 740 mmHg 69%
    07:00 +18°C° 0 mm 4 mps 740 mmHg 65%
    08:00 +19°C° 0 mm 4 mps 740 mmHg 60%
    09:00 +20°C° 0 mm 4 mps 741 mmHg 57%
    10:00 +21°C° 0 mm 4 mps 741 mmHg 55%
    11:00 +22°C° 0 mm 4 mps 741 mmHg 52%
    12:00 +22°C° 0 mm 5 mps 741 mmHg 50%
    13:00 +22°C° 0 mm 5 mps 740 mmHg 50%
    14:00 +22°C° 0 mm 5 mps 740 mmHg 51%
    15:00 +22°C° 0 mm 5 mps 740 mmHg 52%
    16:00 +21°C° 0 mm 5 mps 740 mmHg 56%
    17:00 +20°C° 0 mm 5 mps 740 mmHg 60%
    18:00 +19°C° 0 mm 5 mps 740 mmHg 65%
    19:00 +18°C° 0 mm 4 mps 741 mmHg 66%
    20:00 +17°C° 0 mm 4 mps 741 mmHg 68%
    21:00 +17°C° 0 mm 3 mps 741 mmHg 69%
    22:00 +16°C° 0 mm 3 mps 741 mmHg 70%
    23:00 +16°C° 0 mm 2 mps 741 mmHg 71%

    Tomorrow, 26 May, Friday

    Time Temperature Precipitation Wind Pressure Humidity
    00:00 +16°C° 0 mm 2 mps 741 mmHg 71%
    01:00 +16°C° 0 mm 2 mps 741 mmHg 72%
    02:00 +16°C° 0 mm 2 mps 741 mmHg 73%
    03:00 +15°C° 0 mm 1 mps 741 mmHg 73%
    04:00 +16°C° 0 mm 1 mps 741 mmHg 71%
    05:00 +16°C° 0 mm 1 mps 741 mmHg 68%
    06:00 +18°C° 0 mm 1 mps 741 mmHg 65%
    07:00 +19°C° 0 mm 1 mps 742 mmHg 61%
    08:00 +19°C° 0 mm 2 mps 742 mmHg 58%
    09:00 +20°C° 0 mm 2 mps 742 mmHg 55%
    10:00 +21°C° 0 mm 3 mps 741 mmHg 53%
    11:00 +22°C° 0 mm 3 mps 741 mmHg 51%
    12:00 +23°C° 0 mm 4 mps 741 mmHg 49%
    13:00 +23°C° 0 mm 4 mps 741 mmHg 49%
    14:00 +23°C° 0 mm 5 mps 740 mmHg 50%
    15:00 +23°C° 0 mm 5 mps 740 mmHg 51%
    16:00 +22°C° 0 mm 5 mps 740 mmHg 54%
    17:00 +21°C° 0 mm 4 mps 739 mmHg 58%
    18:00 +20°C° 0 mm 4 mps 739 mmHg 61%
    19:00 +19°C° 0 mm 3 mps 739 mmHg 65%
    20:00 +18°C° 0 mm 3 mps 740 mmHg 69%
    21:00 +17°C° 0 mm 2 mps 740 mmHg 72%
    22:00 +17°C° 0 mm 2 mps 739 mmHg 73%
    23:00 +18°C° 0 mm 1 mps 739 mmHg 75%

    Day after tomorrow, 27 May, Saturday

    Time Temperature Precipitation Wind Pressure Humidity
    00:00 +18°C° 0 mm 1 mps 739 mmHg 76%
    01:00 +16°C° 0 mm 1 mps 739 mmHg 76%
    02:00 +16°C° 0 mm 1 mps 739 mmHg 77%
    03:00 +16°C° 0 mm 1 mps 738 mmHg 77%
    04:00 +16°C° 0 mm 1 mps 738 mmHg 74%
    05:00 +18°C° 0 mm 1 mps 738 mmHg 71%
    06:00 +19°C° 0 mm 1 mps 738 mmHg 68%
    07:00 +20°C° 0 mm 1 mps 738 mmHg 63%
    08:00 +20°C° 0 mm 2 mps 738 mmHg 58%
    09:00 +23°C° 0 mm 2 mps 738 mmHg 53%
    10:00 +24°C° 0 mm 3 mps 738 mmHg 49%
    11:00 +25°C° 0 mm 3 mps 738 mmHg 46%
    12:00 +26°C° 0 mm 4 mps 737 mmHg 42%
    13:00 +26°C° 0 mm 4 mps 737 mmHg 41%
    14:00 +27°C° 0 mm 4 mps 736 mmHg 40%
    15:00 +27°C° 0 mm 4 mps 736 mmHg 39%
    16:00 +26°C° 0.1 mm 4 mps 736 mmHg 43%
    17:00 +25°C° 0.1 mm 4 mps 736 mmHg 47%
    18:00 +24°C° 0.1 mm 3 mps 735 mmHg 51%
    19:00 +21°C° 0.2 mm 3 mps 736 mmHg 56%
    20:00 +20°C° 0.2 mm 2 mps 736 mmHg 62%
    21:00 +19°C° 0.2 mm 2 mps 736 mmHg 67%
    22:00 +19°C° 0 mm 2 mps 736 mmHg 68%
    23:00 +18°C° 0 mm 2 mps 736 mmHg 69%

    28 May, Sunday

    Time Temperature Precipitation Wind Pressure Humidity
    00:00 +18°C° 0 mm 2 mps 736 mmHg 70%
    01:00 +18°C° 0 mm 2 mps 735 mmHg 71%
    02:00 +17°C° 0 mm 2 mps 735 mmHg 72%
    03:00 +17°C° 0 mm 2 mps 735 mmHg 73%
    04:00 +18°C° 0 mm 2 mps 736 mmHg 69%
    05:00 +18°C° 0 mm 2 mps 736 mmHg 65%
    06:00 +19°C° 0 mm 2 mps 736 mmHg 61%
    07:00 +20°C° 0 mm 2 mps 736 mmHg 55%
    08:00 +23°C° 0 mm 2 mps 737 mmHg 50%
    09:00 +24°C° 0 mm 2 mps 737 mmHg 44%
    10:00 +26°C° 0 mm 3 mps 737 mmHg 40%
    11:00 +27°C° 0 mm 3 mps 736 mmHg 36%
    12:00 +28°C° 0 mm 4 mps 736 mmHg 33%
    13:00 +28°C° 0 mm 4 mps 736 mmHg 34%
    14:00 +28°C° 0 mm 5 mps 736 mmHg 35%
    15:00 +27°C° 0 mm 5 mps 735 mmHg 37%
    16:00 +26°C° 0 mm 5 mps 735 mmHg 41%
    17:00 +25°C° 0 mm 4 mps 735 mmHg 44%
    18:00 +22°C° 0 mm 4 mps 735 mmHg 48%
    19:00 +21°C° 0 mm 4 mps 736 mmHg 49%
    20:00 +21°C° 0 mm 3 mps 736 mmHg 50%
    21:00 +20°C° 0 mm 3 mps 737 mmHg 51%
    22:00 +20°C° 0 mm 3 mps 737 mmHg 51%
    23:00 +20°C° 0 mm 3 mps 738 mmHg 51%

    29 May, Monday

    Time Temperature Precipitation Wind Pressure Humidity
    00:00 +20°C° 0 mm 3 mps 738 mmHg 51%
    01:00 +19°C° 0 mm 4 mps 738 mmHg 57%
    02:00 +17°C° 0 mm 5 mps 738 mmHg 63%
    03:00 +17°C° 0 mm 6 mps 739 mmHg 69%
    04:00 +17°C° 0 mm 7 mps 740 mmHg 67%
    05:00 +18°C° 0 mm 7 mps 740 mmHg 64%
    06:00 +18°C° 0 mm 7 mps 741 mmHg 62%
    07:00 +20°C° 0 mm 8 mps 742 mmHg 61%
    08:00 +19°C° 0 mm 9 mps 742 mmHg 59%
    09:00 +21°C° 0 mm 10 mps 743 mmHg 57%
    10:00 +21°C° 0 mm 11 mps 743 mmHg 54%
    11:00 +19°C° 0 mm 11 mps 744 mmHg 52%
    12:00 +19°C° 0 mm 12 mps 744 mmHg 49%
    13:00 +19°C° 0 mm 11 mps 744 mmHg 49%
    14:00 +18°C° 0 mm 11 mps 744 mmHg 49%
    15:00 +18°C° 0 mm 11 mps 744 mmHg 48%
    16:00 +17°C° 0 mm 10 mps 744 mmHg 50%
    17:00 +16°C° 0 mm 10 mps 745 mmHg 52%
    18:00 +15°C° 0 mm 9 mps 745 mmHg 53%
    19:00 +15°C° 0 mm 8 mps 745 mmHg 55%
    20:00 +14°C° 0 mm 7 mps 746 mmHg 57%
    21:00 +14°C° 0 mm 6 mps 746 mmHg 59%
    22:00 +13°C° 0 mm 5 mps 746 mmHg 59%
    23:00 +13°C° 0 mm 5 mps 746 mmHg 60%

    30 May, Tuesday

    Time Temperature Precipitation Wind Pressure Humidity
    00:00 +13°C° 0 mm 4 mps 746 mmHg 61%
    01:00 +13°C° 0 mm 3 mps 746 mmHg 62%
    02:00 +14°C° 0 mm 2 mps 745 mmHg 63%
    03:00 +13°C° 0 mm 2 mps 745 mmHg 65%
    04:00 +14°C° 0 mm 2 mps 745 mmHg 62%
    05:00 +14°C° 0 mm 2 mps 746 mmHg 60%
    06:00 +15°C° 0 mm 1 mps 746 mmHg 57%
    07:00 +16°C° 0 mm 2 mps 746 mmHg 52%
    08:00 +18°C° 0 mm 3 mps 746 mmHg 48%
    09:00 +19°C° 0 mm 4 mps 746 mmHg 43%
    10:00 +20°C° 0 mm 4 mps 745 mmHg 41%
    11:00 +21°C° 0 mm 5 mps 744 mmHg 39%
    12:00 +22°C° 0 mm 6 mps 744 mmHg 37%
    13:00 +22°C° 0 mm 6 mps 743 mmHg 37%
    14:00 +23°C° 0 mm 6 mps 743 mmHg 38%
    15:00 +23°C° 0 mm 7 mps 742 mmHg 38%
    16:00 +22°C° 0 mm 6 mps 742 mmHg 41%
    17:00 +21°C° 0 mm 6 mps 742 mmHg 44%
    18:00 +20°C° 0 mm 6 mps 741 mmHg 47%
    19:00 +19°C° 0 mm 5 mps 741 mmHg 51%
    20:00 +19°C° 0 mm 5 mps 741 mmHg 56%
    21:00 +18°C° 0 mm 4 mps 741 mmHg 60%
    22:00 +17°C° 0 mm 4 mps 740 mmHg 62%
    23:00 +17°C° 0 mm 4 mps 740 mmHg 64%
    Show more